Regional Weather Roundup
Issued by NWS

Home | Current Version | Previous Version | Text Only | Print | Product List | Glossary On
Versions: 1 2 3 4 5 6 7 8 9 10 11 12 13 14 15 16 17 18 19 20 21 22 23 24 25 26 27 28 29 30 31 32 33 34 35 36 37 38 39 40 41 42 43 44 45 46 47 48 49 50
747
ASUS44 KBMX 061910
RWRAL

ALABAMA REGIONAL WEATHER ROUNDUP
NATIONAL WEATHER SERVICE BIRMINGHAM AL
100 PM CST SAT FEB 06 2016

NOTE: "FAIR" INDICATES FEW OR NO CLOUDS BELOW 12,000 FEET
WITH NO SIGNIFICANT WEATHER AND/OR OBSTRUCTIONS TO VISIBILITY.

THE REMARK "TC" DENOTES TEMPERATURE IN DEGREES CELSIUS.

ALZ001>011-014-016>018-020-062000-
NORTH ALABAMA

CITY           SKY/WX    TMP DP  RH WIND       PRES   REMARKS
MUSCLE SHOALS  MOSUNNY   48  24  39 VRB3      30.35F
HUNTSVILLE     PTSUNNY   48  18  30 E3        30.33F
DECATUR        CLOUDY    47  20  34 N5        30.35F
HALEYVILLE     FAIR      49  18  29 VRB7G16   30.33F
GADSDEN        MOSUNNY   46  22  38 VRB3      30.32F
$$

ALZ012-013-022-023-030>036-040>044-062000-
WEST CENTRAL ALABAMA

CITY           SKY/WX    TMP DP  RH WIND       PRES   REMARKS
TUSCALOOSA     CLOUDY    54  17  23 N13G21    30.30F
$$

ALZ015-024>027-033>036-040>044-062000-
CENTRAL ALABAMA

CITY           SKY/WX    TMP DP  RH WIND       PRES   REMARKS
BIRMINGHAM     PTSUNNY   49  20  31 N10       30.32F
MONTGOMERY     SUNNY     53  18  25 E5        30.28F
SHELBY CO ARPT MOSUNNY   50  16  25 VRB3      30.30F
MAXWELL AFB    SUNNY     52  17  25 VRB5      30.26F
GREENVILLE     NOT AVBL
$$

ALZ019-021-028-029-037-038-045>048-062000-
EAST CENTRAL ALABAMA

CITY           SKY/WX    TMP DP  RH WIND       PRES   REMARKS
ANNISTON       SUNNY     51  17  26 VRB5      30.29F
ALEXANDER CITY SUNNY     48  23  37 N5        30.27F
AUBURN         SUNNY     51  18  27 CALM      30.26F
$$

ALZ051>064-062000-
SOUTHWEST ALABAMA

CITY           SKY/WX    TMP DP  RH WIND       PRES   REMARKS
MOBILE         MOSUNNY   55  21  26 N6        30.26F
BROOKLEY FIELD SUNNY     56  22  26 N9        30.28F
EVERGREEN      SUNNY     55  18  23 N14       30.26F
$$

ALZ049-050-065>069-062000-
SOUTHEAST ALABAMA

CITY           SKY/WX    TMP DP  RH WIND       PRES   REMARKS
DOTHAN         SUNNY     54  23  30 VRB7      30.27F
OZARK          SUNNY     54  24  31 VRB1      30.22F
TROY           MOSUNNY   54  20  26 W5        30.25F
EUFAULA        FAIR      57  23  26 VRB6      30.25F
$$




USA.gov is the U.S. government's official web portal to all federal, state and local government web resources and services.